Flag for Italy Weather past 2 weeks in Cagliari, Italy

Now
46 °F

Passing clouds.


Feels Like: 41 °F
Forecast: 44 / 58 °F
Wind: 10 mph from Northwest

Location: Cagliari / Elmas

Current Time: Mar 6, 2015 at 1:11:42 AM

Latest Report: Mar 6, 2015 at 12:50 AM


Visibility: N/A

Pressure: 30.09 "Hg

Humidity: 62%

Dew point: 34 °F

Location of CagliariLocation

Historic Weather in Cagliari — Graph

°F

Cagliari temperature yesterday

Maximum temperature yesterday: 54 °F (at 1:50 PM)
Minimum temperature yesterday: 46 °F (at 5:20 AM)
Average temperature yesterday: 49 °F

Past Weeks' High & Low Weather Summary

 TemperatureHumidityPressure
High70 °F (Mar 3, 1:50 PM)100% (Feb 20, 3:50 AM)30.45 "Hg (Feb 20, 3:50 AM)
Low39 °F (Feb 20, 4:50 AM)50% (Mar 3, 3:20 PM)29.39 "Hg (Feb 22, 4:50 AM)
Average52 °F83%29.96 "Hg
* Reported Feb 18 11:20 PM — Mar 5 11:50 PM, Cagliari, Weather by CustomWeather, © 2015

Note: Actual official high and low records may vary slightly from our data, if they occured in-between our weather recording intervals... More about our weather records

Advertising

Cagliari weather history for previous 24 hours

 ConditionsComfort  
Time TempWeatherWind HumidityBarometerVisibility
11:50 PM
Thu, Mar 5
46 °FPassing clouds.12 mph62%30.09 "HgN/A
11:20 PM46 °FPassing clouds.14 mph57%30.09 "HgN/A
10:50 PM46 °FPassing clouds.14 mph57%30.09 "HgN/A
10:20 PM46 °FPassing clouds.16 mph62%30.07 "HgN/A
9:50 PM46 °FPassing clouds.18 mph66%30.07 "HgN/A
9:20 PM46 °FPassing clouds.18 mph66%30.07 "HgN/A
8:50 PM46 °FPassing clouds.17 mph66%30.07 "HgN/A
8:20 PM46 °FPassing clouds.20 mph66%30.04 "HgN/A
7:50 PM46 °FPassing clouds.18 mph66%30.01 "HgN/A
7:20 PM48 °FPassing clouds.20 mph62%30.01 "HgN/A
6:50 PM48 °FPassing clouds.21 mph62%30.01 "HgN/A
6:20 PM48 °FPassing clouds.24 mph62%30.01 "HgN/A
5:50 PM48 °FPassing clouds.24 mph62%29.98 "HgN/A
5:20 PM50 °FPassing clouds.29 mph58%29.98 "HgN/A
4:50 PM50 °FScattered clouds.31 mph62%29.92 "HgN/A
4:20 PM50 °FScattered clouds.28 mph58%29.92 "HgN/A
3:50 PM52 °FScattered clouds.28 mph54%29.92 "HgN/A
3:20 PM54 °FScattered clouds.30 mph51%29.89 "HgN/A
2:50 PM52 °FScattered clouds.29 mph54%29.89 "HgN/A
2:20 PM52 °FScattered clouds.36 mph54%29.89 "HgN/A
1:50 PM54 °FScattered clouds.26 mph58%29.86 "HgN/A
1:20 PM52 °FScattered clouds.28 mph72%29.86 "HgN/A
12:50 PM52 °FScattered clouds.31 mph62%29.86 "HgN/A
12:20 PM52 °FScattered clouds.28 mph62%29.86 "HgN/A
11:50 AM52 °FPassing clouds.28 mph62%29.83 "HgN/A
11:20 AM52 °FPassing clouds.26 mph62%29.83 "HgN/A
10:50 AM50 °FScattered clouds.24 mph67%29.83 "HgN/A
10:20 AM50 °FScattered clouds.25 mph71%29.80 "HgN/A
9:50 AM50 °FLight rain. Scattered clouds.17 mph94%29.77 "HgN/A
9:20 AM50 °FLight rain. Scattered clouds.12 mph94%29.77 "HgN/A
8:50 AM48 °FRain. Scattered clouds.16 mph94%29.74 "HgN/A
8:20 AM50 °FLight rain. Scattered clouds.18 mph88%29.74 "HgN/A
7:50 AM48 °FLight rain. Scattered clouds.16 mph87%29.71 "HgN/A
7:20 AM46 °FLight rain. Scattered clouds.18 mph87%29.71 "HgN/A
6:50 AM46 °FLight rain. Passing clouds.17 mph87%29.71 "HgN/A
6:20 AM48 °FPassing clouds.22 mph76%29.74 "HgN/A
5:50 AM46 °FPassing clouds.14 mph82%29.80 "HgN/A
5:20 AM46 °FLight rain. Passing clouds.22 mph82%29.83 "HgN/A
4:20 AM50 °FPassing clouds.18 mph62%29.86 "HgN/A
3:50 AM48 °FPassing clouds.12 mph66%29.89 "HgN/A
2:50 AM48 °FPassing clouds.12 mph76%29.92 "HgN/A
2:20 AM48 °FPassing clouds.12 mph76%29.92 "HgN/A
1:50 AM50 °FPassing clouds.12 mph71%29.95 "HgN/A
1:20 AM50 °FPassing clouds.14 mph76%29.95 "HgN/A
Weather by CustomWeather, © 2015

See weather overviewHow to use our weather pages